sat.trackr.live / text

‹ back to catalog

STARLINK-36835

NORAD 67863 · 2026-034P

PAYLOAD ACTIVE UNKNOWN

§ Identity

Operator
Country
US
Launch date
2026-02-20
Launch site
AFETR
Launch vehicle
Mass (kg)
RCS (m²)

Purposes: comms

External: N2YO · Heavens-Above · Gunter

§ Orbital elements

Epoch: 2026-05-25T04:14:38.550048Z

Period
94.10 min
Inclination
53.1587°
Eccentricity
0.0001392
Mean motion
15.30212170 rev/d
Perigee alt
474.2 km
Apogee alt
476.1 km
Semi-major
6,853.3 km
B*
5.7666e-4
RAAN
209.1508°
Arg perigee
85.8454°
Mean anomaly
274.2706°
Rev number
1,574

§ Raw data

STARLINK-368351 67863U 26034P   26145.17683507  .00016765  00000+0  57666-3 0  99972 67863  53.1587 209.1508 0001392  85.8454 274.2706 15.30212170 15742

JSON: /api/v1/satellites/67863 · /tle

For live sub-satellite position, see the globe view (requires WebGL).

§ Visibility from observer

Set your observer location to see the next 7 days of passes ≥ 10°. The values pass through the URL so the page stays shareable.

No JS? Fill the form by hand. The geolocation button needs JavaScript.